Tracking 27422 objects as of 29-May-2023
HD Live streaming from Space Station
objects crossing your sky now

STARLINK-1396

Track STARLINK-1396 now!
10-day predictions
STARLINK-1396 is classified as:


NORAD ID: 45681
Int'l Code: 2020-035AA
Perigee: 553.4 km
Apogee: 555.3 km
Inclination: 53.1 °
Period: 95.6 minutes
Semi major axis: 6925 km
RCS: Unknown
Launch date: June 4, 2020
Source: United States (US)
Launch site: AIR FORCE EASTERN TEST RANGE (AFETR)
Your satellite tracking list
Your tracking list is empty




NASA's NSSDC Master Catalog

Two Line Element Set (TLE):
1 45681U 20035AA  23149.60557593  .00003907  00000-0  28105-3 0  9991
2 45681  53.0533 293.5043 0001333  95.4251 264.6890 15.06401762165871
Source of the keplerian elements: AFSPC